When you browse on this site, cookies collect data to enhance your experience and personalize the content and advertising you see.
Visit our Privacy Policy to learn more. By continuing to use the site, you agree to this use of cookies and data.
  • In Latvia
  • List of Countries
  • For 7 days
  • Water Temperature
  • Weather Map
  • Weather Widgets
  • user-avatar
    Login

    Hourly Weather Begichevo

    Today, 25 August, Sunday

    Time Temperature Precipitation Wind Pressure Humidity
    00:00 +14°C° 0 mm 3 mps 753 mmHg 88%
    01:00 +15°C° 0 mm 2 mps 754 mmHg 90%
    02:00 +15°C° 0 mm 2 mps 754 mmHg 93%
    03:00 +14°C° 0 mm 2 mps 754 mmHg 94%
    04:00 +14°C° 0 mm 2 mps 754 mmHg 94%
    05:00 +14°C° 0 mm 2 mps 754 mmHg 95%
    06:00 +14°C° 0 mm 3 mps 754 mmHg 89%
    07:00 +17°C° 0 mm 3 mps 754 mmHg 82%
    08:00 +18°C° 0 mm 3 mps 755 mmHg 76%
    09:00 +19°C° 0 mm 3 mps 755 mmHg 71%
    10:00 +20°C° 0 mm 4 mps 755 mmHg 65%
    11:00 +21°C° 0 mm 4 mps 755 mmHg 59%
    12:00 +21°C° 0 mm 4 mps 755 mmHg 59%
    13:00 +21°C° 0 mm 4 mps 755 mmHg 58%
    14:00 +22°C° 0 mm 3 mps 755 mmHg 57%
    15:00 +21°C° 0 mm 3 mps 755 mmHg 61%
    16:00 +21°C° 0 mm 3 mps 755 mmHg 64%
    17:00 +20°C° 0 mm 2 mps 755 mmHg 68%
    18:00 +19°C° 0 mm 2 mps 755 mmHg 72%
    19:00 +17°C° 0 mm 2 mps 756 mmHg 75%
    20:00 +16°C° 0 mm 1 mps 756 mmHg 79%
    21:00 +15°C° 0 mm 1 mps 756 mmHg 81%
    22:00 +15°C° 0 mm 1 mps 757 mmHg 84%
    23:00 +14°C° 0 mm 2 mps 757 mmHg 87%

    Tomorrow, 26 August, Monday

    Time Temperature Precipitation Wind Pressure Humidity
    00:00 +14°C° 0 mm 1 mps 757 mmHg 88%
    01:00 +13°C° 0 mm 1 mps 757 mmHg 89%
    02:00 +13°C° 0 mm 1 mps 757 mmHg 91%
    03:00 +13°C° 0 mm 1 mps 757 mmHg 90%
    04:00 +12°C° 0 mm 1 mps 757 mmHg 90%
    05:00 +12°C° 0 mm 1 mps 757 mmHg 90%
    06:00 +14°C° 0 mm 1 mps 757 mmHg 83%
    07:00 +16°C° 0 mm 1 mps 757 mmHg 77%
    08:00 +17°C° 0 mm 0 mps 758 mmHg 70%
    09:00 +18°C° 0 mm 0 mps 757 mmHg 66%
    10:00 +19°C° 0 mm 0 mps 757 mmHg 62%
    11:00 +20°C° 0 mm 0 mps 757 mmHg 58%
    12:00 +23°C° 0 mm 1 mps 757 mmHg 56%
    13:00 +23°C° 0 mm 1 mps 756 mmHg 55%
    14:00 +23°C° 0 mm 2 mps 756 mmHg 53%
    15:00 +23°C° 0 mm 2 mps 756 mmHg 57%
    16:00 +23°C° 0 mm 2 mps 755 mmHg 61%
    17:00 +21°C° 0 mm 2 mps 755 mmHg 65%
    18:00 +20°C° 0 mm 2 mps 754 mmHg 68%
    19:00 +18°C° 0 mm 2 mps 754 mmHg 72%
    20:00 +16°C° 0 mm 2 mps 754 mmHg 75%
    21:00 +16°C° 0 mm 2 mps 754 mmHg 77%
    22:00 +16°C° 0 mm 2 mps 754 mmHg 78%
    23:00 +14°C° 0 mm 3 mps 754 mmHg 79%

    Day after tomorrow, 27 August, Tuesday

    Time Temperature Precipitation Wind Pressure Humidity
    00:00 +14°C° 0 mm 3 mps 753 mmHg 81%
    01:00 +13°C° 0 mm 3 mps 753 mmHg 82%
    02:00 +13°C° 0 mm 3 mps 753 mmHg 84%
    03:00 +13°C° 0 mm 3 mps 752 mmHg 85%
    04:00 +13°C° 0 mm 3 mps 752 mmHg 86%
    05:00 +13°C° 0 mm 3 mps 751 mmHg 87%
    06:00 +14°C° 0 mm 4 mps 751 mmHg 84%
    07:00 +17°C° 0 mm 4 mps 751 mmHg 81%
    08:00 +17°C° 0 mm 5 mps 750 mmHg 78%
    09:00 +19°C° 0.3 mm 5 mps 750 mmHg 75%
    10:00 +21°C° 0.3 mm 6 mps 750 mmHg 73%
    11:00 +22°C° 0.3 mm 6 mps 749 mmHg 70%
    12:00 +22°C° 0.3 mm 6 mps 749 mmHg 70%
    13:00 +21°C° 0.3 mm 6 mps 749 mmHg 71%
    14:00 +21°C° 0.3 mm 6 mps 749 mmHg 72%
    15:00 +21°C° 0 mm 6 mps 749 mmHg 71%
    16:00 +20°C° 0 mm 5 mps 749 mmHg 71%
    17:00 +20°C° 0 mm 5 mps 749 mmHg 71%
    18:00 +19°C° 0 mm 5 mps 749 mmHg 72%
    19:00 +17°C° 0 mm 4 mps 749 mmHg 74%
    20:00 +15°C° 0 mm 4 mps 750 mmHg 76%
    21:00 +14°C° 0 mm 4 mps 750 mmHg 77%
    22:00 +13°C° 0 mm 4 mps 750 mmHg 79%
    23:00 +13°C° 0 mm 4 mps 751 mmHg 80%

    28 August, Wednesday

    Time Temperature Precipitation Wind Pressure Humidity
    00:00 +12°C° 0 mm 4 mps 751 mmHg 82%
    01:00 +11°C° 0 mm 4 mps 751 mmHg 83%
    02:00 +10°C° 0 mm 4 mps 751 mmHg 85%
    03:00 +8°C° 0 mm 4 mps 752 mmHg 86%
    04:00 +8°C° 0 mm 3 mps 752 mmHg 87%
    05:00 +7°C° 0 mm 3 mps 752 mmHg 87%
    06:00 +9°C° 0 mm 3 mps 753 mmHg 82%
    07:00 +10°C° 0 mm 4 mps 753 mmHg 76%
    08:00 +11°C° 0 mm 4 mps 753 mmHg 70%
    09:00 +12°C° 0 mm 5 mps 753 mmHg 66%
    10:00 +13°C° 0 mm 5 mps 753 mmHg 61%
    11:00 +14°C° 0 mm 5 mps 753 mmHg 57%
    12:00 +14°C° 0 mm 5 mps 753 mmHg 54%
    13:00 +15°C° 0 mm 6 mps 753 mmHg 51%
    14:00 +15°C° 0 mm 6 mps 752 mmHg 49%
    15:00 +15°C° 0 mm 5 mps 753 mmHg 52%
    16:00 +14°C° 0 mm 4 mps 753 mmHg 56%
    17:00 +13°C° 0 mm 4 mps 753 mmHg 60%
    18:00 +12°C° 0 mm 4 mps 753 mmHg 63%
    19:00 +10°C° 0 mm 3 mps 754 mmHg 67%
    20:00 +9°C° 0 mm 3 mps 754 mmHg 70%
    21:00 +8°C° 0 mm 3 mps 754 mmHg 74%
    22:00 +7°C° 0 mm 2 mps 754 mmHg 77%
    23:00 +7°C° 0 mm 2 mps 755 mmHg 80%

    29 August, Thursday

    Time Temperature Precipitation Wind Pressure Humidity
    00:00 +6°C° 0 mm 2 mps 755 mmHg 82%
    01:00 +6°C° 0 mm 2 mps 755 mmHg 84%
    02:00 +5°C° 0 mm 2 mps 755 mmHg 85%
    03:00 +5°C° 0 mm 2 mps 755 mmHg 87%
    04:00 +5°C° 0 mm 2 mps 755 mmHg 88%
    05:00 +4°C° 0 mm 3 mps 756 mmHg 89%
    06:00 +5°C° 0 mm 3 mps 756 mmHg 82%
    07:00 +7°C° 0 mm 4 mps 756 mmHg 75%
    08:00 +9°C° 0 mm 5 mps 756 mmHg 68%
    09:00 +11°C° 0 mm 4 mps 756 mmHg 66%
    10:00 +12°C° 0 mm 4 mps 756 mmHg 63%
    11:00 +13°C° 0 mm 4 mps 756 mmHg 61%
    12:00 +14°C° 0 mm 4 mps 755 mmHg 59%
    13:00 +14°C° 0 mm 4 mps 755 mmHg 57%
    14:00 +15°C° 0 mm 4 mps 755 mmHg 54%
    15:00 +15°C° 0 mm 4 mps 755 mmHg 58%
    16:00 +14°C° 0 mm 3 mps 755 mmHg 61%
    17:00 +14°C° 0 mm 3 mps 755 mmHg 64%
    18:00 +13°C° 0 mm 2 mps 755 mmHg 67%
    19:00 +12°C° 0 mm 2 mps 755 mmHg 70%
    20:00 +9°C° 0 mm 2 mps 755 mmHg 73%
    21:00 +8°C° 0 mm 2 mps 755 mmHg 75%
    22:00 +8°C° 0 mm 2 mps 755 mmHg 77%
    23:00 +7°C° 0 mm 2 mps 756 mmHg 79%

    30 August, Friday

    Time Temperature Precipitation Wind Pressure Humidity
    00:00 +7°C° 0 mm 2 mps 756 mmHg 81%
    01:00 +6°C° 0 mm 2 mps 756 mmHg 83%
    02:00 +7°C° 0 mm 1 mps 756 mmHg 85%
    03:00 +7°C° 0 mm 1 mps 756 mmHg 86%
    04:00 +5°C° 0 mm 2 mps 756 mmHg 86%
    05:00 +5°C° 0 mm 2 mps 756 mmHg 87%
    06:00 +7°C° 0 mm 2 mps 755 mmHg 80%
    07:00 +9°C° 0 mm 2 mps 755 mmHg 74%
    08:00 +12°C° 0 mm 2 mps 755 mmHg 67%
    09:00 +13°C° 0 mm 2 mps 755 mmHg 61%
    10:00 +14°C° 0 mm 3 mps 755 mmHg 54%
    11:00 +16°C° 0 mm 3 mps 755 mmHg 48%
    12:00 +17°C° 0 mm 3 mps 754 mmHg 48%
    13:00 +18°C° 0 mm 3 mps 754 mmHg 48%
    14:00 +18°C° 0 mm 3 mps 753 mmHg 48%
    15:00 +18°C° 0 mm 3 mps 753 mmHg 55%
    16:00 +18°C° 0 mm 3 mps 752 mmHg 63%
    17:00 +17°C° 0 mm 3 mps 752 mmHg 70%
    18:00 +16°C° 0.1 mm 3 mps 752 mmHg 75%
    19:00 +16°C° 0.1 mm 3 mps 752 mmHg 81%
    20:00 +14°C° 0.1 mm 3 mps 752 mmHg 86%
    21:00 +13°C° 0.1 mm 3 mps 752 mmHg 89%
    22:00 +14°C° 0.1 mm 2 mps 752 mmHg 92%
    23:00 +14°C° 0.1 mm 2 mps 752 mmHg 95%
    Show more